Probability
0 0 0 0 0 0 0 0 0 0 0 0 0 0 0 0 0 0 0 0 0 0 0 0 0 0 0 0 0 0 0 0 0 0 0 0 0 0 0 0 0 0 0 0
0 0 0 0 0 0 0 0 0 0 0 0 0 0 0 0 0 0 0 0 0 0 0 0 0 0 0 0 0 0 0 0 0 0 0 0 0 0 0 0 0 0 0 0
0 0 0 0 0 0 0 0 0 0 0 0 0 0 0 0 0 0 0 0 0 0 0 0 0 0 0 0 0 0 0 0 0 0 0 0 0 0 0 0 0 0 0 0
0 0 0 0 0 0 0 0 0 0 0 0 0 0 0 0 0 0 0 0 0 0 0 0 0 0 0 0 0 0 0 0 0 0 0 0 0 0 0 0 0 0 0 0
0 0 0 0 0 0 0 0 0 0 0 0 0 0 0 0 0 0 0 0 0 0 0 0 0 0 0 0 0 0 0 0 0 0 0 0 0 0 0 0 0 0 0 0
0 0 0 0 0 0 0 0 0 0 0 0 0 0 0 0 0 0 0 0 0 0 0 0 0 0 0 0 0 0 0 0 0 0 0 0 0 0 0 0 0 0 0 0
0 0 0 0 0 0 0 0 0 0 0 0 0 0 0 0 0 0 0 0 0 0 0 0 0 0 0 0 0 0 0 0 0 0 0 0 0 0 0 0 0 0 0 0
0 0 0 0 0 0 0 0 0 0 0 0 0 0 0 0 0 0 0 0 0 0 0 0 0 0 0 0 0 0 0 0 0 0 0 0 0 0 0 0 0 0 0 0
0 0 0 0 0 0 0 0 0 0 0 0 0 0 0 0 0 0 0 0 0 0 0 0 0 0 0 0 0 0 0 0 0 0 0 0 0 0 0 0 0 0 0 0
0 0 0 0 0 0 0 0 0 0 0 0 0 0 0 0 0 0 0 0 0 0 0 0 0 0 0 0 0 0 0 0 0 0 0 0 0 0 0 0 0 0 0 0
0 0 0 0 0 0 0 0 0 0 0 0 0 0 0 0 0 0 0 0 0 0 0 0 0 0 0 0 0 0 0 0 0 0 0 0 0 0 0 0 0 0 0 0
0 0 0 0 0 0 0 0 0 0 0 0 0 0 0 0 0 0 0 0 0 0 0 0 0 0 0 0 0 0 0 0 0 0 0 0 0 0 0 0 0 0 0 0
0 0 0 0 0 0 0 0 0 0 0 0 0 0 0 0 0 0 0 0 0 0 0 0 0 0 0 0 0 0 0 0 0 0 0 0 0 0 0 0 0 0 0 0
0 0 0 0 0 0 0 0 0 0 0 0 0 0 0 0 0 0 0 0 0 0 0 0 0 0 0 0 0 0 0 0 0 0 0 0 0 0 0 0 0 0 0 0
0 0 0 0 0 0 0 0 0 0 0 0 0 0 0 0 0 0 0 0 0 0 0 0 0 0 0 0 0 0 0 0 0 0 0 0 0 0 0 0 0 0 0 0
0 0 0 0 0 0 0 0 0 0 0 0 0 0 0 0 0 0 0 0 0 0 0 0 0 0 0 0 0 0 0 0 0 0 0 0 0 0 0 0 0 0 0 0
0 0 0 0 0 0 0 0 0 0 0 0 0 0 0 0 0 0 0 0 0 0 0 0 0 0 0 0 0 0 0 0 0 0 0 0 0 0 0 0 0 0 0 0
0 0 0 0 0 0 0 0 0 0 0 0 0 0 0 0 0 0 0 0 0 0 0 0 0 0 0 0 0 0 0 0 0 0 0 0 0 0 0 0 0 0 0 0
0 0 0 0 0 0 0 0 0 0 0 0 0 0 0 0 0 0 0 0 0 0 0 0 0 0 0 0 0 0 0 0 0 0 0 0 0 0 0 0 0 0 0 0
0 0 0 0 0 0 0 0 0 0 0 0 0 0 0 0 0 0 0 0 0 0 0 0 0 0 0 0 0 0 0 0 0 0 0 0 0 0 0 0 0 0 0 0
0 0 0 0 0 0 0 0 0 0 0 0 0 0 0 0 0 0 0 0 0 0 0 0 0 0 0 0 0 0 0 0 0 0 0 0 0 0 0 0 0 0 0 0
0 0 0 0 0 0 0 0 0 0 0 0 0 0 0 0 0 0 0 0 0 0 0 0 0 0 0 0 0 0 0 0 0 0 0 0 0 0 0 0 0 0 0 0
0 0 0 0 0 0 0 0 0 0 0 0 0 0 0 0 0 0 0 0 0 0 0 0 0 0 0 0 0 0 0 0 0 0 0 0 0 0 0 0 0 0 0 0
0 0 0 0 0 0 0 0 0 0 0 0 0 0 0 0 0 0 0 0 0 0 0 0 0 0 0 0 0 0 0 0 0 0 0 0 0 0 0 0 0 0 0 0
0 0 0 0 0 0 0 0 0 0 0 0 0 0 0 0 0 0 0 0 0 0 0 0 0 0 0 0 0 0 0 0 0 0 0 0 0 0 0 0 0 0 0 0
0 0 0 0 0 0 0 0 0 0 0 0 0 0 0 0 0 0 0 0 0 0 0 0 0 0 0 0 0 0 0 0 0 0 0 0 0 0 0 0 0 0 0 0
0 0 0 0 0 0 0 0 0 0 0 0 0 0 0 0 0 0 0 0 0 0 0 0 0 0 0 0 0 0 0 0 0 0 0 0 0 0 0 0 0 0 0 0
Wind_Speed
4 3 2 2 3 1 2 3 4 4 3 4 3 2 2 1 2 3 4 5 5 6 6 7 7 7 7 7 8 8 7 8 8 7 7 7 7 7 7 7 7 6 6 6
3 1 1 3 4 3 3 2 3 3 5 3 1 1 0 1 1 2 3 4 4 5 5 6 7 7 7 7 7 7 7 7 7 7 7 8 8 7 7 7 6 6 6 6
4 5 4 5 5 5 3 3 4 5 5 1 1 2 3 2 2 2 2 3 3 4 4 5 5 5 6 6 6 7 7 7 8 8 8 8 8 8 8 7 7 7 6 6
2 4 4 6 1 3 3 4 5 5 4 3 4 2 2 2 2 2 2 2 2 3 3 4 4 4 5 5 6 6 6 7 7 7 7 7 7 7 7 6 6 6 6 6
1 2 8 6 2 4 3 5 4 6 4 2 1 1 3 2 2 2 2 2 2 2 2 3 4 4 4 5 5 6 7 7 7 7 7 7 7 7 6 6 6 6 6 7
1 2 6 4 1 2 2 5 4 5 5 3 4 0 4 1 2 1 1 1 1 1 2 3 4 3 4 5 5 6 7 7 7 6 6 7 7 6 5 5 6 6 7 6
3 5 9 5 2 3 2 6 2 4 5 5 6 5 2 1 1 1 1 0 1 1 2 3 3 3 4 4 5 6 6 6 6 6 6 6 6 5 6 6 6 6 7 7
4 5 9 3 5 7 8 2 2 3 4 5 5 2 2 2 1 1 0 1 1 1 2 3 3 3 4 5 6 6 6 6 7 7 6 6 6 6 6 6 6 6 6 7
9 9 5 4 7 5 3 3 3 3 4 4 4 3 3 2 2 1 1 1 1 1 3 3 3 3 4 5 6 6 6 7 7 7 6 6 6 7 6 5 5 6 6 7
6 9 6 6 6 5 4 4 4 3 3 4 4 4 3 2 2 1 1 1 1 2 3 4 4 4 4 5 6 6 6 7 6 6 7 6 6 5 6 6 6 7 7 8
7 8 6 6 6 5 4 3 3 2 3 4 4 4 4 3 2 2 1 1 1 1 3 4 5 5 5 5 5 6 7 6 7 6 6 6 6 6 7 6 7 9 7 7
9 7 6 6 3 3 4 5 5 3 2 2 4 4 3 3 2 2 1 1 1 2 3 4 4 5 5 5 5 6 7 7 6 6 6 6 7 8 11 12 15 16 15 14
7 4 4 5 3 3 4 4 4 4 4 3 2 3 3 2 2 1 1 1 2 3 3 4 4 5 5 5 5 5 6 7 6 6 7 7 7 8 9 11 13 15 15 17
6 3 4 5 5 4 3 3 2 2 2 3 2 2 2 2 1 1 1 2 2 2 3 3 4 5 5 5 6 6 6 8 8 6 7 7 7 8 8 9 10 8 11 15
7 7 7 4 3 2 2 3 3 2 2 2 2 3 3 3 2 2 1 1 1 2 3 3 4 5 6 5 6 7 6 6 6 7 7 7 7 8 8 9 9 9 8 10
4 3 4 4 5 4 3 4 4 5 4 3 3 3 3 2 2 1 1 1 1 3 4 4 5 6 6 6 6 6 6 11 10 8 7 7 7 7 8 8 9 8 8 8
4 5 5 6 6 6 6 6 6 5 5 5 4 3 3 2 1 2 2 2 2 3 4 4 5 6 6 6 6 5 6 8 12 9 7 7 7 8 8 8 9 9 8 10
8 8 7 7 7 7 6 5 5 5 5 4 4 3 3 3 3 3 2 2 3 3 4 4 5 6 6 6 6 5 5 6 7 7 7 7 8 8 8 8 9 10 9 10
7 7 7 7 6 6 6 5 5 4 4 4 4 4 3 3 3 2 2 2 3 4 4 4 8 6 6 7 8 4 5 7 7 7 7 10 10 8 8 8 9 9 9 9
4 4 5 5 5 5 5 4 4 4 3 4 4 3 3 3 2 2 2 3 4 4 4 6 6 5 6 7 8 4 5 6 7 7 7 7 8 8 8 8 9 9 8 8
4 4 5 5 4 4 5 5 5 5 4 4 4 4 3 3 2 2 2 3 3 3 4 7 4 4 5 6 7 4 4 6 7 7 7 8 8 8 8 8 9 8 8 8
4 4 5 5 5 4 3 4 5 5 4 4 3 3 3 3 3 3 3 4 3 6 4 3 3 7 9 8 3 4 5 6 6 6 7 7 7 8 8 8 8 8 8 8
4 4 5 5 5 4 3 4 4 5 5 5 4 4 4 3 2 2 3 2 2 6 4 3 7 11 12 5 3 4 5 6 6 6 7 7 7 8 8 8 8 8 7 7
4 5 5 4 4 4 4 4 4 4 4 4 4 4 3 2 2 3 3 4 6 7 3 6 10 11 9 3 3 4 5 6 6 6 6 7 7 7 7 7 7 7 7 8
5 5 5 6 6 5 5 4 4 3 4 3 3 3 3 3 3 2 2 3 5 6 3 6 10 10 5 3 4 4 5 6 7 6 5 6 6 6 7 7 7 7 7 7
5 6 6 6 5 4 4 5 4 4 4 3 3 3 2 2 2 2 2 2 4 5 3 3 4 5 3 4 4 5 5 6 7 6 6 6 7 7 7 7 9 7 7 7
4 4 4 4 4 4 5 5 5 5 5 5 4 3 3 2 2 2 2 2 2 3 3 3 3 3 3 4 4 5 5 5 5 6 6 6 6 6 7 8 7 7 7 7
Wind_Direction
247 253 245 254 267 251 196 206 209 240 248 264 258 249 271 312 341 350 354 360 2 1 359 2 4 4 5 5 5 6 12 14 9 2 360 359 359 358 358 359 355 351 351 351
307 296 286 280 263 241 231 218 224 255 272 255 242 132 294 281 320 330 337 349 355 358 1 1 359 357 358 360 359 2 10 7 360 359 0 359 355 356 357 355 351 350 349 344
299 315 339 286 246 203 213 213 197 223 244 216 209 244 250 251 255 274 304 328 343 346 347 349 349 350 352 349 351 2 5 2 359 358 359 354 350 353 350 344 344 343 338 335
312 359 271 252 245 190 209 247 219 230 241 222 218 233 249 223 221 258 289 312 325 331 334 336 340 345 344 348 353 356 357 355 352 352 351 346 347 345 338 333 332 329 327 322
40 306 282 289 228 179 195 274 224 215 234 229 158 15 308 248 206 220 243 260 276 297 313 331 338 340 344 349 349 351 349 345 342 341 340 341 340 334 327 326 325 323 320 319
155 261 260 263 195 160 104 284 245 193 204 182 137 239 270 241 190 213 260 283 296 324 344 340 331 338 350 345 346 341 333 329 329 331 331 329 324 319 318 319 317 318 316 314
197 239 266 254 192 122 174 252 229 187 193 174 190 211 223 157 165 186 210 302 340 347 340 325 329 345 345 339 331 321 321 323 326 326 321 317 316 317 318 317 317 316 311 309
181 218 258 209 147 188 219 233 195 195 195 191 208 213 185 178 186 186 212 336 352 348 331 331 341 346 334 325 316 320 323 323 321 319 317 322 318 316 316 316 315 313 311 310
201 223 241 204 210 229 198 209 216 203 207 189 200 214 207 202 208 216 233 291 324 321 318 324 331 332 317 313 320 324 324 320 315 315 314 314 313 313 315 314 313 314 314 312
259 262 252 246 246 247 219 217 224 211 200 184 199 209 209 210 216 230 259 282 315 332 326 323 329 327 308 312 322 324 320 316 314 315 314 313 310 307 308 310 309 308 309 308
257 272 289 269 235 231 225 213 209 203 197 194 192 208 205 208 219 231 266 293 314 309 306 310 321 322 321 323 328 325 318 314 316 314 311 312 310 304 303 288 290 300 298 296
231 230 218 253 252 212 205 215 208 193 198 200 192 203 197 202 209 211 236 274 304 306 306 309 317 317 321 326 327 323 321 320 317 313 313 313 312 311 308 307 308 305 302 300
234 242 227 255 252 211 206 215 207 199 198 203 197 184 180 190 197 199 231 277 287 296 301 304 311 311 317 322 322 317 314 314 311 314 315 315 314 314 314 315 312 309 308 308
231 224 254 240 234 225 210 201 182 179 184 177 173 164 164 176 190 207 243 268 280 293 298 302 307 306 310 315 316 314 310 311 312 307 308 309 309 307 307 310 313 311 311 311
232 218 230 244 226 207 180 158 165 189 181 174 168 173 178 190 214 236 255 286 307 305 303 308 308 306 311 313 315 314 312 309 309 307 307 308 307 306 305 305 305 306 308 310
236 234 225 223 222 213 194 192 198 208 198 193 193 198 197 197 208 227 258 279 290 295 300 304 303 307 315 318 318 312 307 313 317 312 310 309 307 306 307 307 306 306 307 309
207 225 214 221 221 218 214 210 205 204 199 200 202 190 172 171 201 247 270 278 270 275 286 297 304 309 313 314 308 305 306 311 317 314 307 306 306 305 305 305 305 305 304 305
217 222 212 209 210 212 215 210 202 196 199 197 176 167 176 194 223 249 273 294 296 293 292 300 303 307 312 312 308 303 305 306 307 306 306 305 304 304 305 303 304 304 305 308
226 225 220 212 204 197 198 198 194 186 177 168 171 185 198 211 224 244 265 280 286 290 291 296 309 316 310 309 316 303 306 308 307 305 304 307 310 307 305 305 304 305 306 308
222 212 201 192 182 181 186 178 163 161 166 163 166 179 203 223 225 238 256 261 252 253 278 297 306 306 303 301 316 311 311 309 307 307 307 306 306 307 308 308 309 309 310 310
212 197 183 176 174 173 172 165 161 169 168 166 180 198 214 228 226 228 250 274 271 268 285 304 314 304 301 311 327 321 312 311 309 307 307 307 308 308 308 310 311 311 312 312
205 194 187 174 166 170 168 164 166 167 167 176 188 195 206 227 235 243 240 245 271 298 303 293 296 304 314 329 331 316 311 308 307 306 306 306 308 309 309 310 310 310 310 309
200 195 187 183 177 168 159 169 174 174 180 188 195 202 213 224 222 233 265 260 271 296 305 289 304 315 325 342 324 312 309 307 305 305 305 306 306 307 307 308 307 309 309 310
195 193 187 170 152 159 186 196 183 182 186 195 203 205 204 220 239 228 236 287 299 304 303 305 316 321 333 339 316 309 307 304 301 299 301 305 306 306 306 307 309 310 310 310
193 186 176 175 186 199 199 181 173 184 190 204 213 210 204 203 217 235 241 265 290 304 303 312 319 325 331 312 307 303 301 299 302 307 306 307 306 307 307 307 308 309 309 310
194 196 198 202 202 190 177 175 186 193 193 206 217 211 204 205 213 225 241 259 275 297 300 297 305 314 309 303 301 299 297 303 310 311 305 305 305 306 306 307 307 306 306 306
197 197 195 202 204 192 185 187 194 200 199 200 207 201 197 201 208 221 236 254 271 280 283 288 292 295 297 298 298 297 297 299 300 301 302 301 302 302 303 304 304 303 304 305